TimeEDT,TemperatureF,Dew PointF,Humidity,Sea Level PressureIn,VisibilityMPH,Wind Direction,Wind SpeedMPH,Gust SpeedMPH,PrecipitationIn,Events,Conditions,WindDirDegrees,DateUTC
12:53 AM,63.0,42.1,46,30.11,10.0,NNW,6.9,-,N/A,,Clear,330,2013-06-05 04:53:00
1:53 AM,61.0,41.0,48,30.11,10.0,North,8.1,-,N/A,,Clear,360,2013-06-05 05:53:00
2:53 AM,55.9,44.1,64,30.12,10.0,NNE,5.8,-,N/A,,Clear,20,2013-06-05 06:53:00
3:53 AM,55.9,44.1,64,30.13,10.0,North,5.8,-,N/A,,Clear,360,2013-06-05 07:53:00
4:53 AM,54.0,44.1,69,30.12,10.0,NNE,6.9,-,N/A,,Clear,20,2013-06-05 08:53:00
5:53 AM,53.1,45.0,74,30.15,10.0,NNE,5.8,-,N/A,,Clear,30,2013-06-05 09:53:00
6:53 AM,57.9,46.9,67,30.18,10.0,NNE,6.9,-,N/A,,Clear,20,2013-06-05 10:53:00
7:53 AM,62.1,48.9,62,30.19,10.0,ENE,5.8,-,N/A,,Clear,70,2013-06-05 11:53:00
8:53 AM,64.9,46.9,52,30.20,10.0,East,9.2,-,N/A,,Clear,100,2013-06-05 12:53:00
9:53 AM,66.9,46.9,49,30.20,10.0,East,5.8,-,N/A,,Clear,90,2013-06-05 13:53:00
10:53 AM,69.1,48.0,47,30.20,10.0,SSE,6.9,-,N/A,,Clear,150,2013-06-05 14:53:00
11:53 AM,70.0,45.0,41,30.19,10.0,SE,9.2,16.1,N/A,,Clear,130,2013-06-05 15:53:00
12:53 PM,70.0,43.0,38,30.18,10.0,SE,9.2,-,N/A,,Clear,140,2013-06-05 16:53:00
1:53 PM,70.0,44.1,39,30.17,10.0,SE,10.4,16.1,N/A,,Clear,140,2013-06-05 17:53:00
2:23 PM,69.8,44.6,40,30.17,10.0,SSE,9.2,-,N/A,,Clear,160,2013-06-05 18:23:00
2:53 PM,70.0,43.0,38,30.17,10.0,SSE,12.7,-,N/A,,Clear,150,2013-06-05 18:53:00
3:53 PM,69.1,41.0,36,30.15,10.0,SE,12.7,-,N/A,,Clear,140,2013-06-05 19:53:00
4:53 PM,68.0,41.0,37,30.16,10.0,SE,11.5,-,N/A,,Clear,140,2013-06-05 20:53:00
5:53 PM,66.9,42.1,40,30.15,10.0,SSE,11.5,-,N/A,,Clear,160,2013-06-05 21:53:00
6:53 PM,66.0,43.0,43,30.16,10.0,SE,8.1,-,N/A,,Clear,140,2013-06-05 22:53:00
7:53 PM,63.0,46.0,54,30.14,10.0,SSE,6.9,-,N/A,,Clear,150,2013-06-05 23:53:00
8:53 PM,60.1,52.0,75,30.15,10.0,SSE,4.6,-,N/A,,Clear,150,2013-06-06 00:53:00
9:53 PM,59.0,54.0,83,30.16,10.0,SE,3.5,-,N/A,,Clear,130,2013-06-06 01:53:00
10:53 PM,57.9,54.0,87,30.15,10.0,East,3.5,-,N/A,,Clear,100,2013-06-06 02:53:00
11:53 PM,57.0,54.0,89,30.16,10.0,Calm,Calm,-,N/A,,Clear,0,2013-06-06 03:53:00